timestamp,surface_pressure_avg,surface_temp_avg,battery_voltage,lat,long
2019-07-13 00:00:00+00:00,239.9364,9.8,13.13,47.84626,-54.09684
2019-07-13 00:10:00+00:00,232.4998,9.85,12.97,47.84626,-54.09684
2019-07-13 00:20:00+00:00,228.7264,9.9,13.05,47.84626,-54.09684
2019-07-13 00:30:00+00:00,226.6131,9.9,12.97,47.84626,-54.09684
2019-07-13 00:40:00+00:00,222.8231,9.95,13.05,47.84626,-54.09684
2019-07-13 00:50:00+00:00,218.1797,10.0,13.05,47.84626,-54.09684
2019-07-13 01:00:00+00:00,213.9364,10.09,12.97,47.84626,-54.09684
2019-07-13 01:10:00+00:00,211.3281,10.2,12.89,47.84626,-54.09684
2019-07-13 01:20:00+00:00,209.9798,10.2,12.97,47.84626,-54.09684
2019-07-13 01:30:00+00:00,209.0231,10.29,12.97,47.84626,-54.09684
2019-07-13 01:40:00+00:00,210.0331,10.4,12.97,47.84626,-54.09684
2019-07-13 01:50:00+00:00,207.2315,10.5,12.97,47.84626,-54.09684
2019-07-13 02:00:00+00:00,202.8098,10.6,12.89,47.84626,-54.09684
2019-07-13 02:10:00+00:00,201.1497,10.65,12.81,47.84626,-54.09684
2019-07-13 02:20:00+00:00,201.1597,10.7,12.89,47.84626,-54.09684
2019-07-13 02:30:00+00:00,199.8164,10.78,12.89,47.84626,-54.09684
2019-07-13 02:40:00+00:00,197.1298,10.83,12.97,47.84626,-54.09684
2019-07-13 02:50:00+00:00,194.3731,10.9,12.97,47.84626,-54.09684
2019-07-13 03:00:00+00:00,194.9348,10.9,12.89,47.84626,-54.09684
2019-07-13 03:10:00+00:00,197.5731,10.98,12.81,47.84626,-54.09684
2019-07-13 03:20:00+00:00,197.9098,11.0,12.89,47.84626,-54.09684
2019-07-13 03:30:00+00:00,199.2098,11.09,12.89,47.84626,-54.09684
2019-07-13 03:40:00+00:00,205.3931,11.1,12.97,47.84626,-54.09684
2019-07-13 03:50:00+00:00,207.7531,11.1,12.97,47.84626,-54.09684
2019-07-13 04:00:00+00:00,205.5881,11.1,12.89,47.84626,-54.09684
2019-07-13 04:10:00+00:00,209.5048,11.15,12.81,47.84626,-54.09684
2019-07-13 04:20:00+00:00,212.9216,11.18,12.89,47.84626,-54.09684
2019-07-13 04:30:00+00:00,210.2381,11.2,12.89,47.84626,-54.09684
2019-07-13 04:40:00+00:00,210.6998,11.2,12.89,47.84626,-54.09684
2019-07-13 04:50:00+00:00,215.5865,11.26,12.89,47.84626,-54.09684
2019-07-13 05:00:00+00:00,219.078,11.29,12.81,47.84626,-54.09684
2019-07-13 05:10:00+00:00,222.6914,11.3,12.81,47.84626,-54.09684
2019-07-13 05:20:00+00:00,226.7131,11.3,12.89,47.84626,-54.09684
2019-07-13 05:30:00+00:00,229.3965,11.35,12.89,47.84626,-54.09684
2019-07-13 05:40:00+00:00,231.7014,11.4,12.89,47.84626,-54.09684
2019-07-13 05:50:00+00:00,235.3248,11.4,12.89,47.84626,-54.09684
2019-07-13 06:00:00+00:00,243.7881,11.44,12.81,47.84626,-54.09684
2019-07-13 06:10:00+00:00,253.8214,11.49,12.81,47.84626,-54.09684
2019-07-13 06:20:00+00:00,262.4647,11.4,12.89,47.84626,-54.09684
2019-07-13 06:30:00+00:00,269.0114,11.45,12.89,47.84626,-54.09684
2019-07-13 06:40:00+00:00,272.683,11.5,12.89,47.84626,-54.09684
2019-07-13 06:50:00+00:00,275.7498,11.5,12.89,47.84626,-54.09684
2019-07-13 07:00:00+00:00,277.6614,11.5,12.81,47.84626,-54.09684
2019-07-13 07:10:00+00:00,282.1281,11.3,12.73,47.84626,-54.09684
2019-07-13 07:20:00+00:00,285.178,11.2,12.81,47.84626,-54.09684
2019-07-13 07:30:00+00:00,287.248,11.2,12.81,47.84626,-54.09684
2019-07-13 07:40:00+00:00,293.8464,11.2,12.81,47.84626,-54.09684
2019-07-13 07:50:00+00:00,298.293,11.2,12.89,47.84626,-54.09684
2019-07-13 08:00:00+00:00,293.6564,11.27,12.81,47.84626,-54.09684
2019-07-13 08:10:00+00:00,292.7246,11.27,12.73,47.84626,-54.09684
2019-07-13 08:20:00+00:00,299.3414,11.2,12.81,47.84626,-54.09684
2019-07-13 08:30:00+00:00,302.0496,11.2,12.81,47.84626,-54.09684
2019-07-13 08:40:00+00:00,301.4597,11.17,12.81,47.84626,-54.09684
2019-07-13 08:50:00+00:00,304.7831,11.18,12.81,47.84626,-54.09684
2019-07-13 09:00:00+00:00,312.4429,11.19,12.81,47.84626,-54.09684
2019-07-13 09:10:00+00:00,312.3464,11.19,12.73,47.84626,-54.09684
2019-07-13 09:20:00+00:00,312.8097,11.1,12.81,47.84626,-54.09684
2019-07-13 09:30:00+00:00,311.8148,11.14,12.81,47.84626,-54.09684
2019-07-13 09:40:00+00:00,312.0314,11.13,12.81,47.84626,-54.09684
2019-07-13 09:50:00+00:00,312.6263,11.1,12.81,47.84626,-54.09684
2019-07-13 10:00:00+00:00,311.8781,11.18,12.81,47.84626,-54.09684
2019-07-13 10:10:00+00:00,307.8397,11.26,12.73,47.84626,-54.09684
2019-07-13 10:20:00+00:00,304.168,11.2,12.81,47.84626,-54.09684
2019-07-13 10:30:00+00:00,299.8246,11.24,12.81,47.84626,-54.09684
2019-07-13 10:40:00+00:00,293.0114,11.3,12.89,47.84626,-54.09684
2019-07-13 10:50:00+00:00,283.0897,11.3,12.97,47.84626,-54.09684
2019-07-13 11:00:00+00:00,281.528,11.19,12.97,47.84626,-54.09684
2019-07-13 11:10:00+00:00,280.0214,11.19,12.89,47.84626,-54.09684
2019-07-13 11:20:00+00:00,269.6164,11.2,12.97,47.84626,-54.09684
2019-07-13 11:30:00+00:00,257.5447,11.26,13.05,47.84626,-54.09684
2019-07-13 11:40:00+00:00,253.488,11.29,13.13,47.84626,-54.09684
2019-07-13 11:50:00+00:00,244.3364,11.25,13.21,47.84626,-54.09684
2019-07-13 12:00:00+00:00,230.3648,11.28,13.21,47.84626,-54.09684
2019-07-13 12:10:00+00:00,225.7397,11.29,13.21,47.84626,-54.09684
2019-07-13 12:20:00+00:00,228.6331,11.28,13.37,47.84626,-54.09684
2019-07-13 12:30:00+00:00,221.6298,11.27,13.44,47.84626,-54.09684
2019-07-13 12:40:00+00:00,214.3115,11.29,13.53,47.84626,-54.09684
2019-07-13 12:50:00+00:00,214.538,11.28,13.53,47.84626,-54.09684
2019-07-13 13:00:00+00:00,211.9214,11.25,13.53,47.84626,-54.09684
2019-07-13 13:10:00+00:00,204.5665,11.24,13.53,47.84626,-54.09684
2019-07-13 13:20:00+00:00,200.8798,11.24,13.68,47.84626,-54.09684
2019-07-13 13:30:00+00:00,201.1048,11.23,13.76,47.84626,-54.09684
2019-07-13 13:40:00+00:00,197.718,11.24,13.92,47.84626,-54.09684
2019-07-13 13:50:00+00:00,196.6614,11.25,14.16,47.84626,-54.09684
2019-07-13 14:00:00+00:00,197.2148,11.25,14.16,47.84626,-54.09684
2019-07-13 14:10:00+00:00,193.9348,11.26,14.24,47.84626,-54.09684
2019-07-13 14:20:00+00:00,191.9665,11.29,14.32,47.84626,-54.09684
2019-07-13 14:30:00+00:00,191.4798,11.29,14.32,47.84626,-54.09684
2019-07-13 14:40:00+00:00,189.7615,11.3,14.32,47.84626,-54.09684
2019-07-13 14:50:00+00:00,188.608,11.3,14.32,47.84626,-54.09684
2019-07-13 15:00:00+00:00,188.2831,11.31,14.24,47.84626,-54.09684
2019-07-13 15:10:00+00:00,189.8665,11.35,14.16,47.84626,-54.09684
2019-07-13 15:20:00+00:00,188.9532,11.39,14.16,47.84626,-54.09684
2019-07-13 15:30:00+00:00,188.7213,11.4,14.16,47.84626,-54.09684
2019-07-13 15:40:00+00:00,189.3499,11.4,14.16,47.84626,-54.09684
2019-07-13 15:50:00+00:00,192.0415,11.43,14.24,47.84626,-54.09684
2019-07-13 16:00:00+00:00,197.9714,11.5,14.16,47.84626,-54.09684
2019-07-13 16:10:00+00:00,202.6798,11.5,14.16,47.84626,-54.09684
2019-07-13 16:20:00+00:00,203.9416,11.55,14.4,47.84626,-54.09684
2019-07-13 16:30:00+00:00,205.0148,11.59,14.4,47.84626,-54.09684
2019-07-13 16:40:00+00:00,210.3281,11.6,14.56,47.84626,-54.09684
2019-07-13 16:50:00+00:00,214.7531,11.6,14.56,47.84626,-54.09684
2019-07-13 17:00:00+00:00,215.4333,11.66,14.56,47.84626,-54.09684
2019-07-13 17:10:00+00:00,217.5581,11.69,14.24,47.84626,-54.09684
2019-07-13 17:20:00+00:00,225.398,11.7,14.32,47.84626,-54.09684
2019-07-13 17:30:00+00:00,232.2831,11.7,14.32,47.84626,-54.09684
2019-07-13 17:40:00+00:00,234.9864,11.7,14.24,47.84626,-54.09684
2019-07-13 17:50:00+00:00,238.3415,11.7,14.24,47.84626,-54.09684
2019-07-13 18:00:00+00:00,244.9764,11.72,14.24,47.84626,-54.09684
2019-07-13 18:10:00+00:00,254.2214,11.8,14.16,47.84626,-54.09684
2019-07-13 18:20:00+00:00,258.8564,11.86,14.24,47.84626,-54.09684
2019-07-13 18:30:00+00:00,264.5581,11.9,14.24,47.84626,-54.09684
2019-07-13 18:40:00+00:00,274.578,11.9,14.24,47.84626,-54.09684
2019-07-13 18:50:00+00:00,282.7897,11.89,14.24,47.84626,-54.09684
2019-07-13 19:00:00+00:00,286.0381,11.87,14.16,47.84626,-54.09684
2019-07-13 19:10:00+00:00,295.7863,11.8,14.08,47.84626,-54.09684
2019-07-13 19:20:00+00:00,306.2914,11.8,14.24,47.84626,-54.09684
2019-07-13 19:30:00+00:00,312.083,11.8,14.24,47.84626,-54.09684
2019-07-13 19:40:00+00:00,316.6863,11.8,14.24,47.84626,-54.09684
2019-07-13 19:50:00+00:00,323.8214,11.79,14.24,47.84626,-54.09684
2019-07-13 20:00:00+00:00,329.0464,11.8,14.16,47.84626,-54.09684
2019-07-13 20:10:00+00:00,334.9947,11.78,14.0,47.84626,-54.09684
2019-07-13 20:20:00+00:00,338.1213,11.8,14.08,47.84626,-54.09684
2019-07-13 20:30:00+00:00,333.9713,11.83,14.08,47.84626,-54.09684
2019-07-13 20:40:00+00:00,334.6946,11.88,14.08,47.84626,-54.09684
2019-07-13 20:50:00+00:00,339.8746,11.8,14.08,47.84626,-54.09684
2019-07-13 21:00:00+00:00,342.903,11.8,14.0,47.84626,-54.09684
2019-07-13 21:10:00+00:00,343.9728,11.8,13.84,47.84626,-54.09684
2019-07-13 21:20:00+00:00,347.8714,11.8,13.84,47.84626,-54.09684
2019-07-13 21:30:00+00:00,347.1797,11.88,13.84,47.84626,-54.09684
2019-07-13 21:40:00+00:00,342.7896,12.0,13.84,47.84626,-54.09684
2019-07-13 21:50:00+00:00,341.6978,12.02,13.76,47.84626,-54.09684
2019-07-13 22:00:00+00:00,341.6147,12.0,13.68,47.84626,-54.09684
2019-07-13 22:10:00+00:00,341.8831,12.0,13.53,47.84626,-54.09684
2019-07-13 22:20:00+00:00,340.2479,12.0,13.53,47.84626,-54.09684
2019-07-13 22:30:00+00:00,340.458,12.0,13.44,47.84626,-54.09684
2019-07-13 22:40:00+00:00,338.4297,12.0,13.44,47.84626,-54.09684
2019-07-13 22:50:00+00:00,330.7546,11.99,13.37,47.84626,-54.09684
2019-07-13 23:00:00+00:00,324.5146,11.96,13.29,47.84626,-54.09684
2019-07-13 23:10:00+00:00,317.768,11.98,13.21,47.84626,-54.09684
2019-07-13 23:20:00+00:00,306.9863,12.0,13.13,47.84626,-54.09684
2019-07-13 23:30:00+00:00,301.4131,12.0,13.13,47.84626,-54.09684
2019-07-13 23:40:00+00:00,299.3763,12.0,13.13,47.84626,-54.09684
2019-07-13 23:50:00+00:00,290.4164,12.0,13.05,47.84626,-54.09684
